Gulfport, MS

2:10 AM CST on February 06, 2016 (GMT -0600)
Gulfport-Biloxi Regional

Weather History for KGPT - December, 2013

Change the Weather History Date:

Tuesday, December 31, 2013

  Actual Average Record
Temperature  
Mean Temperature 48 °F -  
Max Temperature 51 °F 61 °F 74 °F (1974)
Min Temperature 44 °F 45 °F 16 °F (1983)
Degree Days  
Heating Degree Days 18    
Moisture  
Dew Point 40 °F    
Average Humidity 78    
Maximum Humidity 89    
Minimum Humidity 71    
Precipitation  
Precipitation 0.06 in - - ()
Sea Level Pressure  
Sea Level Pressure 30.35 in    
Wind  
Wind Speed 7 mph (NNE)    
Max Wind Speed 10 mph    
Max Gust Speed -    
Visibility 10 miles    
Events Rain    
Averages and records for this station are not official NWS values.
T = Trace of Precipitation, MM = Missing Value Source: NWS Daily Summary

Daily Weather History Graph

Daily Weather History Graph

Search for Another Location

Airport or City:

Trip Planner

Search our weather history database for the weather conditions in past years. The results will help you decide how hot, cold, wet, or windy it might be!

Date:

Astronomy

Dec. 31, 2013 Rise Set
Actual Time 6:52 AM CST 5:06 PM CST
Civil Twilight 6:26 AM CST 5:32 PM CST
Nautical Twilight 5:56 AM CST 6:02 PM CST
Astronomical Twilight 5:27 AM CST 6:31 PM CST
Moon 5:48 AM CST (12/31) 4:38 PM CST (12/31)
Length of Visible Light 11h 06m
Length of Day
10h 13m
Waning Crescent, 1% of the Moon is Illuminated
Dec 31
Waning Crescent
Jan 1
New
Jan 7
First Quarter
Jan 15
Full
Jan 23
Last Quarter

Hourly Weather History & Observations

Time (CST) Temp. Windchill Dew Point Humidity Pressure Visibility Wind Dir Wind Speed Gust Speed Precip Events Conditions
12:53 AM 51.1 °F - 45.0 °F 80% 30.31 in 10.0 mi North 4.6 mph - N/A   Clear
1:53 AM 50.0 °F - 44.1 °F 80% 30.30 in 10.0 mi North 8.1 mph - N/A   Clear
2:53 AM 48.9 °F - 43.0 °F 80% 30.31 in 10.0 mi North 5.8 mph - N/A   Clear
3:53 AM 48.0 °F - 41.0 °F 77% 30.32 in 10.0 mi North 8.1 mph - N/A   Clear
4:53 AM 46.0 °F 41.0 °F 39.9 °F 79% 30.33 in 10.0 mi North 10.4 mph - N/A   Clear
5:53 AM 45.0 °F 41.2 °F 39.0 °F 80% 30.33 in 10.0 mi NNE 6.9 mph - N/A   Clear
6:53 AM 44.1 °F 39.5 °F 39.0 °F 82% 30.35 in 10.0 mi North 8.1 mph - N/A   Mostly Cloudy
7:53 AM 45.0 °F 41.2 °F 39.0 °F 80% 30.39 in 8.0 mi North 6.9 mph - N/A   Overcast
8:53 AM 45.0 °F 40.1 °F 39.0 °F 80% 30.43 in 9.0 mi North 9.2 mph - N/A   Overcast
9:53 AM 46.0 °F 41.4 °F 39.0 °F 76% 30.41 in 10.0 mi NNE 9.2 mph - N/A   Overcast
10:53 AM 46.9 °F - 39.0 °F 74% 30.39 in 10.0 mi NNE 8.1 mph - N/A   Overcast
11:53 AM 48.0 °F - 39.0 °F 71% 30.36 in 10.0 mi NE 8.1 mph - N/A   Overcast
12:53 PM 46.9 °F - 39.0 °F 74% 30.35 in 10.0 mi NNE 6.9 mph - N/A   Overcast
1:51 PM 48.2 °F - 39.2 °F 71% 30.33 in 10.0 mi NNE 5.8 mph - N/A   Overcast
1:53 PM 48.0 °F - 39.0 °F 71% 30.33 in 10.0 mi NNE 5.8 mph - N/A   Overcast
2:53 PM 46.9 °F - 39.0 °F 74% 30.35 in 10.0 mi North 5.8 mph - 0.00 in Rain Light Rain
3:53 PM 46.0 °F 44.8 °F 39.0 °F 76% 30.34 in 10.0 mi ENE 3.5 mph - 0.00 in Rain Light Rain
4:53 PM 46.0 °F 41.9 °F 37.9 °F 73% 30.35 in 10.0 mi North 8.1 mph - 0.00 in   Scattered Clouds
5:53 PM 46.0 °F 43.1 °F 39.0 °F 76% 30.35 in 10.0 mi NNE 5.8 mph - 0.00 in Rain Light Rain
6:53 PM 46.0 °F 43.9 °F 39.0 °F 76% 30.35 in 10.0 mi NNE 4.6 mph - 0.00 in Rain Light Rain
7:53 PM 45.0 °F 42.6 °F 39.9 °F 82% 30.37 in 10.0 mi NE 4.6 mph - 0.01 in Rain Light Rain
8:53 PM 45.0 °F 42.6 °F 39.9 °F 82% 30.37 in 8.0 mi North 4.6 mph - 0.03 in Rain Light Rain
9:53 PM 45.0 °F 42.6 °F 39.9 °F 82% 30.37 in 10.0 mi NE 4.6 mph - 0.00 in Rain Light Rain
10:53 PM 45.0 °F 42.6 °F 39.9 °F 82% 30.36 in 10.0 mi ENE 4.6 mph - 0.02 in   Overcast
11:53 PM 44.1 °F 41.5 °F 41.0 °F 89% 30.33 in 8.0 mi ENE 4.6 mph - 0.00 in Rain Light Rain